Date_and_time,latitude,longitude,wind_speed,RelWindDirFrom,WindDirFrom,air_pressure,air_temperature,relative_humidity,Temp,platform_speed_wrt_ground,air_pressure_at_mean_sea_level,platform_orientation
2018-05-23 23:50,50.6304466666667,-96.980765,9.6,10.9,84,986.83,19.7,71,10.41,0.0,1012.67,311.7
2018-05-24 00:00,50.6304433333333,-96.98077,10.8,11.4,84,986.74,20.2,67,10.28,0.0,1012.56,192.6
2018-05-24 00:10,50.630445,-96.980765,10.5,11.9,82,986.70,20.8,65,10.41,0.0,1012.47,192.6
2018-05-24 00:20,50.6304333333333,-96.9807716666667,11.0,11.4,81,986.66,20.6,67,10.66,0.0,1012.45,192.6
2018-05-24 00:30,50.63044,-96.9807633333333,10.9,11.6,81,986.60,20.3,68,10.87,0.0,1012.46,192.6
2018-05-24 00:40,50.6304433333333,-96.980765,11.3,12.3,82,986.52,19.7,71,11.05,0.0,1012.38,192.6
2018-05-24 00:50,50.6304433333333,-96.9807616666667,11.5,12.1,82,986.49,20.0,68,11.10,0.0,1012.30,192.6
2018-05-24 01:00,50.6304533333333,-96.98077,10.9,11.8,83,986.42,20.4,64,11.05,0.0,1012.20,345.5
2018-05-24 01:10,50.6304316666667,-96.9807616666667,9.8,10.5,83,986.39,20.7,64,11.03,0.0,1012.15,345.5
2018-05-24 01:20,50.630445,-96.98076,9.9,10.6,83,986.36,20.7,64,11.03,0.0,1012.20,345.5
2018-05-24 01:30,50.6304666666667,-96.980795,8.9,10.5,85,986.36,19.2,74,11.08,0.0,1012.29,345.5
2018-05-24 01:40,50.63045,-96.9807583333333,10.3,12.3,82,986.34,18.3,79,11.13,0.0,1012.33,345.5
2018-05-24 01:50,50.6304316666667,-96.9807483333333,10.2,11.9,80,986.35,19.2,73,11.16,0.0,1012.28,345.5
2018-05-24 02:00,50.6304366666667,-96.9807566666667,7.4,9.8,85,986.38,19.2,71,11.12,0.0,1012.28,165.5
2018-05-24 02:10,50.6304566666667,-96.9807566666667,6.7,9.6,90,986.39,19.0,72,11.04,0.0,1012.31,165.5
2018-05-24 02:20,50.6304433333333,-96.9807633333333,7.5,9.0,88,986.38,19.3,72,10.98,0.0,1012.30,165.5
2018-05-24 02:30,50.6304266666667,-96.9807516666667,6.7,8.4,91,986.46,19.7,67,10.95,0.0,1012.39,165.5
2018-05-24 02:40,50.6304366666667,-96.9807566666667,4.9,7.1,94,986.53,19.3,72,10.95,0.0,1012.47,165.5
2018-05-24 02:50,50.6304416666667,-96.980755,8.4,10.2,87,986.52,19.0,72,10.94,0.0,1012.46,165.5
2018-05-24 03:00,50.6304483333333,-96.9807533333333,9.9,11.1,83,986.55,19.2,71,10.91,0.0,1012.46,54.7
2018-05-24 03:10,50.6304483333333,-96.980755,6.2,9.7,88,986.55,18.9,72,10.83,0.0,1012.47,54.7
2018-05-24 03:20,50.6304483333333,-96.9807566666667,7.6,9.4,84,986.54,18.8,72,10.72,0.0,1012.53,54.7
2018-05-24 03:30,50.63045,-96.9807566666667,7.0,8.7,88,986.58,18.5,78,10.74,0.0,1012.62,54.7
2018-05-24 03:40,50.6304516666667,-96.9807566666667,6.3,8.5,95,986.56,18.0,83,10.78,0.0,1012.60,54.7
2018-05-24 03:50,50.6304516666667,-96.9807583333333,4.6,7.2,95,986.48,17.9,87,10.83,0.0,1012.52,54.7
2018-05-24 04:00,50.6304616666667,-96.9807566666667,3.7,4.8,114,986.48,18.0,89,10.83,0.0,1012.51,360.0
2018-05-24 04:10,50.630465,-96.9807466666667,3.9,5.7,122,986.45,18.2,89,10.83,0.0,1012.46,360.0
2018-05-24 04:20,50.6304316666667,-96.9807666666667,4.1,6.1,126,986.49,18.2,89,10.80,0.0,1012.49,360.0
2018-05-24 04:30,50.6304433333333,-96.980765,4.9,7.8,135,986.52,17.8,87,10.77,0.0,1012.56,360.0
2018-05-24 04:40,50.630445,-96.9807666666667,8.0,10.1,128,986.48,17.6,86,10.83,0.0,1012.53,360.0
2018-05-24 04:50,50.630445,-96.9807633333333,4.8,8.6,139,986.46,16.5,92,10.90,0.0,1012.56,360.0
2018-05-24 05:00,50.6304433333333,-96.9807583333333,6.0,8.9,148,986.48,16.3,93,10.93,0.0,1012.60,38.0
2018-05-24 05:10,50.6304433333333,-96.9807583333333,7.3,9.3,145,986.37,16.9,90,10.92,0.0,1012.46,38.0
2018-05-24 05:20,50.6304433333333,-96.9807583333333,8.0,9.6,149,986.30,17.4,82,10.88,0.0,1012.39,38.0
2018-05-24 05:30,50.630445,-96.98076,8.5,9.4,153,986.30,17.8,75,10.86,0.0,1012.39,38.0
2018-05-24 05:40,50.6304383333333,-96.9807833333333,8.9,10.2,152,986.36,17.7,85,10.86,0.0,1012.46,38.0
2018-05-24 05:50,50.6304433333333,-96.9807633333333,8.9,10.3,154,986.35,17.9,88,10.83,0.0,1012.44,38.0
2018-05-24 06:00,50.6304466666667,-96.9807583333333,9.1,10.2,151,986.29,18.0,87,10.79,0.0,1012.35,270.0
2018-05-24 06:10,50.6304466666667,-96.9807616666667,8.1,9.2,151,986.28,17.4,86,10.78,0.0,1012.37,270.0
2018-05-24 06:20,50.6304483333333,-96.9807616666667,8.6,9.5,152,986.26,17.6,87,10.76,0.0,1012.36,270.0
2018-05-24 06:30,50.6304483333333,-96.98076,8.7,9.3,148,986.24,17.8,86,10.73,0.0,1012.34,270.0
2018-05-24 06:40,50.6304483333333,-96.98076,8.9,9.7,152,986.22,17.6,92,10.73,0.0,1012.39,270.0
2018-05-24 06:50,50.63044,-96.9807516666667,8.3,9.1,156,986.18,17.9,97,10.66,0.0,1012.34,270.0
2018-05-24 07:00,50.6304416666667,-96.9807566666667,8.0,9.3,161,986.16,17.7,99,10.58,0.0,1012.30,360.0
2018-05-24 07:10,50.6304133333333,-96.98074,7.8,8.5,166,986.15,17.6,99,10.64,0.0,1012.27,360.0
2018-05-24 07:20,50.630435,-96.9807466666667,7.4,8.4,167,986.09,17.8,98,10.66,0.0,1012.18,360.0
2018-05-24 07:30,50.6304483333333,-96.9807583333333,6.2,7.5,172,986.02,17.7,96,10.58,0.0,1012.12,360.0
2018-05-24 07:40,50.630445,-96.9807583333333,5.4,6.2,169,985.91,17.9,97,10.54,0.0,1011.99,360.0
2018-05-24 07:50,50.6304483333333,-96.9807566666667,5.5,6.2,165,985.79,18.0,98,10.54,0.0,1011.86,360.0
2018-05-24 08:00,50.6304483333333,-96.98076,5.7,6.8,167,985.63,17.9,95,10.65,0.0,1011.72,360.0
2018-05-24 08:10,50.6304466666667,-96.9807583333333,5.0,5.9,156,985.48,17.9,95,10.67,0.0,1011.56,360.0
2018-05-24 08:20,50.6304466666667,-96.9807583333333,6.5,7.3,155,985.38,17.8,93,10.60,0.0,1011.46,360.0
2018-05-24 08:30,50.63043,-96.9807483333333,6.1,6.9,143,985.31,17.6,94,10.55,0.0,1011.40,360.0
2018-05-24 08:40,50.6304433333333,-96.980755,4.8,5.5,122,985.30,16.8,97,10.51,0.0,1011.41,360.0
2018-05-24 08:50,50.630445,-96.9807583333333,4.5,5.7,133,985.29,16.4,100,10.47,0.0,1011.43,360.0
2018-05-24 09:00,50.6304283333333,-96.9807633333333,4.8,5.9,155,985.28,16.3,100,10.39,0.0,1011.43,360.0
2018-05-24 09:10,50.6304333333333,-96.980765,3.7,4.9,154,985.14,16.3,100,10.28,0.0,1011.27,360.0
2018-05-24 09:20,50.6304366666667,-96.98076,1.8,4.0,92,984.88,16.4,100,10.12,0.0,1011.01,360.0
2018-05-24 09:30,50.6304466666667,-96.980745,2.8,3.9,54,984.72,15.5,101,10.16,0.0,1010.88,360.0
2018-05-24 09:40,50.630445,-96.9807716666667,2.1,4.3,95,984.93,15.7,101,10.26,0.0,1011.08,360.0
2018-05-24 09:50,50.6304383333333,-96.9807633333333,3.5,4.8,132,985.01,16.0,100,10.27,0.0,1011.15,360.0
2018-05-24 10:00,50.6304416666667,-96.98076,4.8,7.2,142,984.90,15.9,98,10.36,0.0,1011.04,0.0
2018-05-24 10:10,50.6304416666667,-96.9807583333333,5.3,7.9,149,984.80,15.9,99,10.39,0.0,1010.94,0.0
2018-05-24 10:20,50.6304433333333,-96.98076,5.8,7.5,142,984.77,14.9,100,10.40,0.0,1010.96,0.0
2018-05-24 10:30,50.6304433333333,-96.9807616666667,7.2,10.2,136,984.75,14.8,100,10.55,0.0,1010.99,0.0
2018-05-24 10:40,50.6304416666667,-96.9807616666667,9.3,10.6,132,984.76,15.6,100,10.83,0.0,1010.98,0.0
2018-05-24 10:50,50.6304416666667,-96.9807616666667,7.8,8.6,123,984.75,15.3,100,10.97,0.0,1010.99,0.0
2018-05-24 11:00,50.6304416666667,-96.9807616666667,7.7,8.1,122,984.69,15.4,100,10.92,0.0,1010.92,360.0
2018-05-24 11:10,50.6304416666667,-96.9807616666667,7.5,8.0,122,984.65,15.7,100,10.88,0.0,1010.86,360.0
2018-05-24 11:20,50.6304433333333,-96.9807616666667,7.2,8.1,122,984.70,15.1,100,10.70,0.0,1010.98,360.0
2018-05-24 11:30,50.6304433333333,-96.98076,5.9,6.9,124,984.71,15.0,100,10.52,0.0,1010.98,360.0
2018-05-24 11:40,50.6304433333333,-96.98076,4.2,5.9,124,984.65,15.3,100,10.42,0.0,1010.90,360.0
2018-05-24 11:50,50.6304433333333,-96.98076,2.3,4.0,143,984.55,15.3,100,10.43,0.0,1010.81,360.0
2018-05-24 12:00,50.6304433333333,-96.98076,2.4,3.7,155,984.40,15.4,100,10.47,0.0,1010.64,23.5
2018-05-24 12:10,50.6304466666667,-96.9807366666667,2.0,3.4,132,984.24,16.5,100,10.32,0.0,1010.47,23.5
2018-05-24 12:20,50.6304466666667,-96.9807666666667,1.2,2.4,53,984.08,16.5,100,10.01,0.0,1010.32,23.5
2018-05-24 12:30,50.6304483333333,-96.9807616666667,1.5,3.0,27,984.03,16.1,100,9.99,0.0,1010.24,23.5
2018-05-24 12:40,50.6304483333333,-96.9807566666667,3.4,5.3,51,984.01,16.4,100,9.87,0.0,1010.22,23.5
2018-05-24 12:50,50.6304483333333,-96.980755,3.8,5.3,76,984.07,16.0,100,9.79,0.0,1010.30,23.5
2018-05-24 13:00,50.6304466666667,-96.9807566666667,4.2,6.1,80,983.94,15.4,100,9.69,0.0,1010.18,360.0
2018-05-24 13:10,50.6304466666667,-96.980755,3.1,4.6,106,983.97,15.4,100,9.62,0.0,1010.23,360.0
2018-05-24 13:20,50.6304466666667,-96.980755,2.5,6.2,126,984.05,15.4,100,10.01,0.0,1010.32,360.0
2018-05-24 13:30,50.63044,-96.9807683333333,4.8,7.3,104,983.83,15.8,100,10.28,0.0,1010.07,360.0
2018-05-24 13:40,50.6304316666667,-96.9807566666667,2.3,3.9,67,983.40,15.0,100,10.44,0.0,1009.67,360.0
2018-05-24 13:50,50.6304316666667,-96.9807533333333,2.5,7.3,64,983.15,15.1,100,10.30,0.0,1009.39,360.0
2018-05-24 14:00,50.630445,-96.9807616666667,6.3,7.8,94,982.91,15.6,100,10.16,0.0,1009.08,0.0
2018-05-24 14:10,50.6304283333333,-96.9807666666667,7.8,9.5,99,982.75,15.9,100,9.93,0.0,1008.90,0.0
2018-05-24 14:20,50.6304333333333,-96.9807533333333,7.1,9.0,114,982.64,15.8,100,9.83,0.0,1008.81,0.0
2018-05-24 14:30,50.630435,-96.980745,9.1,10.9,108,982.48,15.8,100,9.61,0.0,1008.63,0.0
2018-05-24 14:40,50.630435,-96.9807516666667,11.0,11.9,115,982.39,16.6,100,9.88,0.0,1008.53,0.0
2018-05-24 14:50,50.6304333333333,-96.9807533333333,9.8,10.4,110,982.48,16.6,100,10.28,0.0,1008.64,0.0
2018-05-24 15:00,50.6304333333333,-96.9807533333333,9.5,10.4,115,982.52,16.4,100,10.34,0.0,1008.69,138.7
2018-05-24 15:10,50.630445,-96.9807633333333,10.2,11.2,123,982.62,16.5,100,10.36,0.0,1008.79,138.7
2018-05-24 15:20,50.6304233333333,-96.980765,10.5,11.0,128,982.65,17.1,100,10.30,0.0,1008.78,138.7
2018-05-24 15:30,50.6304283333333,-96.9807583333333,10.5,11.3,121,982.45,17.2,100,10.23,0.0,1008.60,138.7
2018-05-24 15:40,50.6304316666667,-96.9807516666667,11.2,12.1,119,982.31,17.0,100,10.20,0.0,1008.46,138.7
2018-05-24 15:50,50.6304316666667,-96.9807633333333,11.1,11.7,119,982.30,17.3,100,10.30,0.0,1008.42,138.7
2018-05-24 16:00,50.6304333333333,-96.980765,11.3,12.5,112,982.22,17.0,100,10.39,0.0,1008.33,203.5
2018-05-24 16:10,50.6304333333333,-96.980765,11.7,12.6,117,982.29,17.6,98,10.45,0.0,1008.39,203.5
2018-05-24 16:20,50.6304266666667,-96.98076,11.9,13.3,128,982.49,19.6,92,10.63,0.0,1008.50,203.5
2018-05-24 16:30,50.63043,-96.9807666666667,10.9,16.6,136,982.60,18.3,98,10.70,0.0,1008.63,203.5
2018-05-24 16:40,50.6304266666667,-96.9807633333333,12.2,16.1,137,982.54,19.0,95,10.66,0.0,1008.54,203.5
2018-05-24 16:50,50.6304316666667,-96.98076,11.7,13.2,129,982.51,20.5,78,10.73,0.0,1008.45,203.5
2018-05-24 17:00,50.6304316666667,-96.980765,11.4,12.6,125,982.34,22.7,67,11.28,0.0,1008.17,221.3
2018-05-24 17:10,50.630425,-96.980755,10.5,11.1,117,982.18,18.6,97,11.28,0.0,1008.16,221.3
2018-05-24 17:20,50.6304283333333,-96.980755,10.8,11.7,111,982.01,17.0,100,11.54,0.0,1008.05,221.3
2018-05-24 17:30,50.6304233333333,-96.9807533333333,8.7,10.2,103,981.83,16.7,100,11.55,0.0,1007.89,221.3
2018-05-24 17:40,50.6304233333333,-96.9807583333333,2.3,12.5,238,982.04,18.1,99,11.42,0.0,1008.03,221.3
2018-05-24 17:50,50.6304233333333,-96.9807616666667,4.5,8.6,312,981.98,20.5,90,11.25,0.0,1007.87,221.3
2018-05-24 18:00,50.6304433333333,-96.98076,6.0,9.1,304,981.83,21.4,82,11.55,0.0,1007.66,318.7
2018-05-24 18:10,50.6304283333333,-96.9807683333333,5.8,8.9,289,981.67,21.8,76,12.18,0.0,1007.39,318.7
2018-05-24 18:20,50.6304283333333,-96.9807666666667,5.7,8.8,293,981.50,22.2,72,12.15,0.0,1007.26,318.7
2018-05-24 18:30,50.63043,-96.9807633333333,5.6,8.5,316,981.27,22.5,70,12.05,0.0,1006.97,318.7
2018-05-24 18:40,50.6304316666667,-96.980765,5.8,7.8,338,981.16,22.8,68,12.33,0.0,1006.78,318.7
2018-05-24 18:50,50.6304333333333,-96.9807616666667,8.7,11.0,22,980.98,19.8,85,12.27,0.0,1006.62,318.7
2018-05-24 19:00,50.6304316666667,-96.98076,9.0,10.3,19,980.93,18.4,95,12.35,0.0,1006.83,90.0
2018-05-24 19:10,50.6304316666667,-96.9807616666667,7.8,9.4,13,980.86,18.3,97,12.41,0.0,1006.83,90.0
2018-05-24 19:20,50.6304333333333,-96.98076,6.2,7.6,3,980.95,20.3,86,12.17,0.0,1006.84,90.0
2018-05-24 19:30,50.6304333333333,-96.9807583333333,8.6,9.9,11,980.57,21.0,82,11.55,0.0,1006.36,90.0
2018-05-24 19:40,50.6304333333333,-96.9807583333333,10.3,13.4,19,980.42,20.0,90,10.98,0.0,1006.15,90.0
2018-05-24 19:50,50.630435,-96.980755,10.9,12.3,25,980.22,17.7,99,10.63,0.0,1006.00,90.0
2018-05-24 20:00,50.6304383333333,-96.9807616666667,11.5,13.0,30,979.88,16.6,100,10.41,0.0,1005.68,14.5
2018-05-24 20:10,50.6304383333333,-96.9807616666667,11.6,13.1,33,979.61,16.2,100,10.32,0.0,1005.41,14.5
2018-05-24 20:20,50.6304416666667,-96.9807616666667,9.1,12.0,35,979.65,15.9,101,10.24,0.0,1005.45,14.5
2018-05-24 20:30,50.6304416666667,-96.98076,6.0,8.3,9,979.71,15.9,101,10.74,0.0,1005.49,14.5
2018-05-24 20:40,50.6304433333333,-96.9807583333333,8.4,9.7,31,979.45,16.1,101,10.79,0.0,1005.36,14.5
2018-05-24 20:50,50.63042,-96.9807783333333,9.4,10.1,17,979.24,16.2,101,11.14,0.0,1005.19,14.5
2018-05-24 21:00,50.6304366666667,-96.9807666666667,10.5,11.2,12,979.04,16.9,100,11.27,0.0,1004.96,228.3
2018-05-24 21:10,50.6304533333333,-96.9808133333333,9.2,10.0,10,978.95,17.6,100,11.42,0.0,1004.74,228.3
2018-05-24 21:20,50.6304433333333,-96.9807666666667,9.5,10.3,14,978.76,17.2,100,11.63,0.0,1004.54,228.3
2018-05-24 21:30,50.6304316666667,-96.98073,9.0,10.2,12,978.51,16.6,100,11.45,0.0,1004.35,228.3
2018-05-24 21:40,50.6304383333333,-96.9807466666667,8.8,9.4,14,978.27,16.3,100,11.32,0.0,1004.23,228.3
2018-05-24 21:50,50.63044,-96.9807533333333,8.9,9.9,7,978.08,16.8,100,11.23,0.0,1004.06,228.3
2018-05-24 22:00,50.6304383333333,-96.980755,10.2,11.1,11,977.87,17.3,100,11.42,0.0,1003.84,360.0
2018-05-24 22:10,50.6304366666667,-96.9807516666667,10.6,11.2,9,977.66,17.1,100,11.24,0.0,1003.64,360.0
2018-05-24 22:20,50.6304383333333,-96.9807533333333,10.5,12.4,6,977.45,17.8,100,10.65,0.0,1003.40,360.0
2018-05-24 22:30,50.6304383333333,-96.9807566666667,9.5,10.7,7,977.38,18.3,100,10.73,0.0,1003.29,360.0
2018-05-24 22:40,50.6304516666667,-96.9807733333333,9.2,10.7,13,977.27,18.8,99,10.83,0.0,1003.16,360.0
2018-05-24 22:50,50.6304283333333,-96.98075,10.2,12.4,14,977.10,17.8,100,10.54,0.0,1002.99,360.0
2018-05-24 23:00,50.6304383333333,-96.9807566666667,8.2,10.3,6,976.99,17.2,100,10.27,0.0,1002.88,0.0
2018-05-24 23:10,50.6304366666667,-96.9807583333333,7.4,10.2,359,976.88,17.7,100,10.75,0.0,1002.76,0.0
2018-05-24 23:20,50.63044,-96.9807616666667,5.8,8.0,6,976.77,19.5,95,10.09,0.0,1002.60,0.0
2018-05-24 23:30,50.6304333333333,-96.9807183333333,5.2,6.7,358,976.71,20.5,90,9.62,0.0,1002.51,0.0
2018-05-24 23:40,50.6304416666667,-96.9807466666667,6.5,8.4,6,976.67,21.6,84,9.63,0.0,1002.39,0.0
2018-05-24 23:50,50.6304466666667,-96.9807533333333,7.1,8.7,6,976.59,21.2,88,9.96,0.0,1002.30,0.0
